| time (UTC) | temp F | wind direction | speed MPH | gust MPH | rain 1hr in | rain 24hr in | rain mn in | humidity % | barometer mb |
| 20260504012115 | 59 | 245 | 3.0 | 4.0 | 0.00 | 0.00 | 0.00 | 63 | 1010.7 |
| 20260504011815 | 58 | 243 | 3.0 | 4.0 | 0.00 | 0.00 | 0.00 | 66 | 1010.6 |
| 20260504011515 | 56 | 242 | 3.0 | 4.0 | 0.00 | 0.00 | 0.00 | 70 | 1010.6 |
| 20260504011335 | 56 | 245 | 3.0 | 4.0 | 0.00 | 0.00 | 0.00 | 71 | 1010.6 |
| 20260504010915 | 56 | 250 | 2.0 | 4.0 | 0.00 | 0.00 | 0.00 | 72 | 1010.6 |
| 20260504010615 | 56 | 248 | 2.0 | 3.0 | 0.00 | 0.00 | 0.00 | 72 | 1010.5 |
| 20260504010315 | 56 | 263 | 1.0 | 3.0 | 0.00 | 0.00 | 0.00 | 71 | 1010.5 |
| 20260504010036 | 56 | 266 | 2.0 | 3.0 | 0.00 | 0.00 | 0.00 | 71 | 1010.5 |
| 20260504005538 | 57 | 266 | 1.0 | 2.0 | 0.00 | 0.00 | 0.00 | 68 | 1010.5 |
| 20260504005155 | 57 | 266 | 1.0 | 3.0 | 0.00 | 0.00 | 0.00 | 69 | 1010.5 |
| 20260504004815 | 57 | 266 | 1.0 | 2.0 | 0.00 | 0.00 | 0.00 | 69 | 1010.5 |
| 20260504004638 | 57 | 266 | 0.0 | 1.0 | 0.00 | 0.00 | 0.00 | 68 | 1010.6 |
| 20260504004215 | 57 | 241 | 1.0 | 2.0 | 0.00 | 0.00 | 0.00 | 69 | 1010.5 |
| 20260504003915 | 57 | 223 | 0.0 | 1.0 | 0.00 | 0.00 | 0.00 | 69 | 1010.5 |
| 20260504003658 | 57 | 223 | 0.0 | 2.0 | 0.00 | 0.00 | 0.00 | 69 | 1010.5 |
| 20260504003315 | 58 | 223 | 0.0 | 1.0 | 0.00 | 0.00 | 0.00 | 69 | 1010.5 |
| 20260504003015 | 58 | 223 | 0.0 | 2.0 | 0.00 | 0.00 | 0.00 | 68 | 1010.5 |
| 20260504002715 | 58 | 223 | 1.0 | 2.0 | 0.00 | 0.00 | 0.00 | 66 | 1010.5 |
| 20260504002415 | 58 | 223 | 1.0 | 2.0 | 0.00 | 0.00 | 0.00 | 66 | 1010.4 |
| 20260504002115 | 58 | 223 | 1.0 | 2.0 | 0.00 | 0.00 | 0.00 | 66 | 1010.4 |
| 20260504001815 | 58 | 228 | 1.0 | 3.0 | 0.00 | 0.00 | 0.00 | 67 | 1010.4 |
| 20260504001515 | 58 | 228 | 2.0 | 4.0 | 0.00 | 0.00 | 0.00 | 67 | 1010.4 |
| 20260504001255 | 57 | 228 | 1.0 | 2.0 | 0.00 | 0.00 | 0.00 | 67 | 1010.4 |
| 20260504000915 | 57 | 228 | 1.0 | 2.0 | 0.00 | 0.00 | 0.00 | 68 | 1010.4 |
| 20260504000735 | 57 | 228 | 1.0 | 3.0 | 0.00 | 0.00 | 0.00 | 68 | 1010.4 |
| 20260504000315 | 58 | 228 | 1.0 | 2.0 | 0.00 | 0.00 | 0.00 | 68 | 1010.4 |
| 20260504000018 | 58 | 228 | 0.0 | 1.0 | 0.00 | 0.00 | 0.00 | 68 | 1010.4 |
| 20260503235715 | 58 | 228 | 0.0 | 1.0 | 0.00 | 0.00 | 0.00 | 67 | 1010.3 |
| 20260503235415 | 58 | 228 | 1.0 | 2.0 | 0.00 | 0.00 | 0.00 | 67 | 1010.3 |
| 20260503235118 | 58 | 228 | 1.0 | 2.0 | 0.00 | 0.00 | 0.00 | 66 | 1010.3 |
| 20260503234858 | 58 | 228 | 1.0 | 2.0 | 0.00 | 0.00 | 0.00 | 66 | 1010.3 |
| 20260503234515 | 58 | 0.0 | 0.0 | 0.00 | 0.00 | 0.00 | 66 | 1010.3 | |
| 20260503234215 | 58 | 228 | 0.0 | 1.0 | 0.00 | 0.00 | 0.00 | 65 | 1010.3 |
| 20260503233915 | 58 | 228 | 1.0 | 2.0 | 0.00 | 0.00 | 0.00 | 66 | 1010.3 |
| 20260503233655 | 58 | 228 | 0.0 | 1.0 | 0.00 | 0.00 | 0.00 | 65 | 1010.3 |
| 20260503233438 | 59 | 228 | 0.0 | 1.0 | 0.00 | 0.00 | 0.00 | 63 | 1010.3 |
| 20260503233018 | 59 | 228 | 0.0 | 2.0 | 0.00 | 0.00 | 0.00 | 62 | 1010.3 |
| 20260503232715 | 60 | 228 | 0.0 | 1.0 | 0.00 | 0.00 | 0.00 | 61 | 1010.3 |
| 20260503232415 | 60 | 228 | 1.0 | 2.0 | 0.00 | 0.00 | 0.00 | 58 | 1010.3 |
| 20260503232115 | 60 | 228 | 1.0 | 2.0 | 0.00 | 0.00 | 0.00 | 57 | 1010.3 |
| 20260503231815 | 60 | 228 | 2.0 | 3.0 | 0.00 | 0.00 | 0.00 | 57 | 1010.2 |
| 20260503231558 | 61 | 228 | 2.0 | 3.0 | 0.00 | 0.00 | 0.00 | 56 | 1010.3 |
| 20260503231215 | 62 | 228 | 1.0 | 2.0 | 0.00 | 0.00 | 0.00 | 55 | 1010.3 |
| 20260503230915 | 62 | 228 | 1.0 | 3.0 | 0.00 | 0.00 | 0.00 | 53 | 1010.4 |
| 20260503230615 | 63 | 234 | 1.0 | 2.0 | 0.00 | 0.00 | 0.00 | 52 | 1010.4 |
| 20260503230318 | 63 | 240 | 2.0 | 4.0 | 0.00 | 0.00 | 0.00 | 50 | 1010.4 |
| 20260503230015 | 63 | 236 | 3.0 | 4.0 | 0.00 | 0.00 | 0.00 | 51 | 1010.4 |
| 20260503225755 | 63 | 237 | 3.0 | 5.0 | 0.00 | 0.00 | 0.00 | 51 | 1010.4 |
| 20260503225415 | 63 | 244 | 3.0 | 4.0 | 0.00 | 0.00 | 0.00 | 52 | 1010.4 |
| 20260503225115 | 63 | 241 | 3.0 | 4.0 | 0.00 | 0.00 | 0.00 | 52 | 1010.5 |
| 20260503224855 | 63 | 238 | 3.0 | 5.0 | 0.00 | 0.00 | 0.00 | 52 | 1010.5 |
| 20260503224555 | 63 | 244 | 3.0 | 4.0 | 0.00 | 0.00 | 0.00 | 52 | 1010.4 |
| 20260503224215 | 63 | 240 | 3.0 | 4.0 | 0.00 | 0.00 | 0.00 | 51 | 1010.4 |
| 20260503223955 | 63 | 235 | 3.0 | 4.0 | 0.00 | 0.00 | 0.00 | 51 | 1010.4 |
| 20260503223615 | 62 | 233 | 3.0 | 4.0 | 0.00 | 0.00 | 0.00 | 52 | 1010.3 |
| 20260503223315 | 63 | 236 | 2.0 | 3.0 | 0.00 | 0.00 | 0.00 | 52 | 1010.3 |
| 20260503223018 | 63 | 245 | 2.0 | 5.0 | 0.00 | 0.00 | 0.00 | 51 | 1010.2 |
| 20260503222715 | 63 | 206 | 2.0 | 3.0 | 0.00 | 0.00 | 0.00 | 50 | 1010.2 |
| 20260503222415 | 63 | 197 | 2.0 | 3.0 | 0.00 | 0.00 | 0.00 | 52 | 1010.2 |
| 20260503222115 | 63 | 202 | 1.0 | 3.0 | 0.00 | 0.00 | 0.00 | 52 | 1010.1 |
| 20260503222055 | 63 | 208 | 1.0 | 3.0 | 0.00 | 0.00 | 0.00 | 51 | 1010.1 |
| 20260503221515 | 63 | 219 | 2.0 | 4.0 | 0.00 | 0.00 | 0.00 | 52 | 1010.1 |
| 20260503221255 | 62 | 237 | 3.0 | 6.0 | 0.00 | 0.00 | 0.00 | 52 | 1010.3 |
| 20260503220915 | 61 | 258 | 3.0 | 8.0 | 0.00 | 0.00 | 0.00 | 55 | 1010.4 |
| 20260503220658 | 60 | 278 | 3.0 | 10.0 | 0.00 | 0.00 | 0.00 | 58 | 1010.3 |
| 20260503220315 | 58 | 282 | 7.0 | 10.0 | 0.00 | 0.00 | 0.00 | 62 | 1010.4 |
| 20260503220015 | 58 | 223 | 2.0 | 4.0 | 0.00 | 0.00 | 0.00 | 64 | 1010.1 |
| 20260503215715 | 58 | 190 | 1.0 | 2.0 | 0.00 | 0.00 | 0.00 | 64 | 1010.0 |
| 20260503215415 | 59 | 190 | 1.0 | 3.0 | 0.00 | 0.00 | 0.00 | 64 | 1009.9 |
| 20260503215235 | 59 | 190 | 1.0 | 2.0 | 0.00 | 0.00 | 0.00 | 63 | 1009.9 |
| 20260503214815 | 59 | 190 | 1.0 | 2.0 | 0.00 | 0.00 | 0.00 | 62 | 1009.9 |
| 20260503214555 | 59 | 190 | 1.0 | 2.0 | 0.00 | 0.00 | 0.00 | 61 | 1009.9 |
| 20260503214215 | 59 | 190 | 1.0 | 2.0 | 0.00 | 0.00 | 0.00 | 62 | 1010.0 |
| 20260503213915 | 59 | 190 | 0.0 | 1.0 | 0.00 | 0.00 | 0.00 | 61 | 1009.9 |
| 20260503213655 | 59 | 190 | 0.0 | 2.0 | 0.00 | 0.00 | 0.00 | 61 | 1009.9 |
| 20260503213355 | 60 | 188 | 1.0 | 2.0 | 0.00 | 0.00 | 0.00 | 61 | 1009.9 |
| 20260503213055 | 60 | 163 | 1.0 | 2.0 | 0.00 | 0.00 | 0.00 | 60 | 1009.9 |
| 20260503212715 | 60 | 0.0 | 0.0 | 0.00 | 0.00 | 0.00 | 60 | 1009.9 | |
| 20260503212535 | 60 | 0.0 | 0.0 | 0.00 | 0.00 | 0.00 | 60 | 1009.8 | |
| 20260503212116 | 61 | 0.0 | 0.0 | 0.00 | 0.00 | 0.00 | 60 | 1009.8 | |
| 20260503211815 | 61 | 163 | 0.0 | 2.0 | 0.00 | 0.00 | 0.00 | 59 | 1009.8 |
| 20260503211515 | 61 | 163 | 0.0 | 1.0 | 0.00 | 0.00 | 0.00 | 58 | 1009.8 |
| 20260503211255 | 62 | 0.0 | 0.0 | 0.00 | 0.00 | 0.00 | 58 | 1009.8 | |
| 20260503210915 | 62 | 163 | 0.0 | 1.0 | 0.00 | 0.00 | 0.00 | 58 | 1009.8 |
| 20260503210615 | 62 | 163 | 0.0 | 1.0 | 0.00 | 0.00 | 0.00 | 57 | 1009.8 |
| 20260503210318 | 63 | 163 | 1.0 | 2.0 | 0.00 | 0.00 | 0.00 | 56 | 1009.8 |
| 20260503210015 | 63 | 163 | 1.0 | 2.0 | 0.00 | 0.00 | 0.00 | 55 | 1009.7 |
| 20260503205715 | 63 | 163 | 2.0 | 3.0 | 0.00 | 0.00 | 0.00 | 54 | 1009.8 |
| 20260503205415 | 64 | 163 | 2.0 | 3.0 | 0.00 | 0.00 | 0.00 | 53 | 1009.8 |
| 20260503205118 | 65 | 163 | 1.0 | 2.0 | 0.00 | 0.00 | 0.00 | 51 | 1009.8 |
| 20260503204815 | 66 | 155 | 2.0 | 3.0 | 0.00 | 0.00 | 0.00 | 47 | 1009.7 |
| 20260503204515 | 67 | 153 | 2.0 | 4.0 | 0.00 | 0.00 | 0.00 | 45 | 1009.8 |
| 20260503204258 | 67 | 154 | 3.0 | 4.0 | 0.00 | 0.00 | 0.00 | 43 | 1009.8 |
| 20260503204039 | 67 | 153 | 3.0 | 4.0 | 0.00 | 0.00 | 0.00 | 43 | 1009.8 |
| 20260503203615 | 67 | 161 | 3.0 | 4.0 | 0.00 | 0.00 | 0.00 | 44 | 1009.8 |
| 20260503203315 | 67 | 171 | 2.0 | 3.0 | 0.00 | 0.00 | 0.00 | 45 | 1009.8 |
| 20260503203018 | 67 | 175 | 2.0 | 3.0 | 0.00 | 0.00 | 0.00 | 45 | 1009.9 |
| 20260503202715 | 67 | 177 | 2.0 | 4.0 | 0.00 | 0.00 | 0.00 | 44 | 1009.9 |
| 20260503202455 | 67 | 170 | 2.0 | 4.0 | 0.00 | 0.00 | 0.00 | 44 | 1009.9 |
| 20260503202115 | 67 | 167 | 2.0 | 4.0 | 0.00 | 0.00 | 0.00 | 45 | 1009.9 |
| 20260503201815 | 66 | 185 | 2.0 | 4.0 | 0.00 | 0.00 | 0.00 | 46 | 1009.9 |
| 20260503201518 | 66 | 176 | 3.0 | 5.0 | 0.00 | 0.00 | 0.00 | 48 | 1009.9 |
| 20260503201215 | 65 | 175 | 2.0 | 3.0 | 0.00 | 0.00 | 0.00 | 52 | 1010.0 |
| 20260503200915 | 65 | 175 | 2.0 | 4.0 | 0.00 | 0.00 | 0.00 | 52 | 1009.9 |
| 20260503200615 | 65 | 175 | 2.0 | 3.0 | 0.00 | 0.00 | 0.00 | 52 | 1010.0 |
| 20260503200315 | 65 | 175 | 2.0 | 3.0 | 0.00 | 0.00 | 0.00 | 54 | 1010.1 |
| 20260503200015 | 65 | 166 | 2.0 | 4.0 | 0.00 | 0.00 | 0.00 | 51 | 1010.1 |
| 20260503195715 | 64 | 164 | 3.0 | 4.0 | 0.00 | 0.00 | 0.00 | 55 | 1010.1 |
| 20260503195455 | 64 | 167 | 2.0 | 3.0 | 0.00 | 0.00 | 0.00 | 57 | 1010.1 |
| 20260503195115 | 65 | 167 | 2.0 | 3.0 | 0.00 | 0.00 | 0.00 | 56 | 1010.1 |
| 20260503194818 | 65 | 167 | 2.0 | 3.0 | 0.00 | 0.00 | 0.00 | 57 | 1010.1 |
| 20260503194515 | 65 | 167 | 2.0 | 3.0 | 0.00 | 0.00 | 0.00 | 58 | 1010.1 |
| 20260503194215 | 64 | 170 | 2.0 | 3.0 | 0.00 | 0.00 | 0.00 | 59 | 1010.1 |
| 20260503193915 | 64 | 171 | 2.0 | 3.0 | 0.00 | 0.00 | 0.00 | 61 | 1010.0 |
| 20260503193655 | 64 | 171 | 2.0 | 3.0 | 0.00 | 0.00 | 0.00 | 60 | 1010.1 |
| 20260503193315 | 64 | 174 | 2.0 | 3.0 | 0.00 | 0.00 | 0.00 | 60 | 1010.0 |
| 20260503193135 | 64 | 175 | 2.0 | 3.0 | 0.00 | 0.00 | 0.00 | 59 | 1010.0 |
| 20260503192715 | 64 | 175 | 1.0 | 3.0 | 0.00 | 0.00 | 0.00 | 60 | 1010.0 |
| 20260503192415 | 64 | 175 | 2.0 | 3.0 | 0.00 | 0.00 | 0.00 | 60 | 1010.0 |
| 20260503192115 | 64 | 176 | 2.0 | 3.0 | 0.00 | 0.00 | 0.00 | 60 | 1010.0 |
| 20260503191935 | 64 | 175 | 1.0 | 3.0 | 0.00 | 0.00 | 0.00 | 59 | 1010.0 |
| 20260503191555 | 64 | 175 | 1.0 | 3.0 | 0.00 | 0.00 | 0.00 | 59 | 1010.1 |
| 20260503191255 | 65 | 175 | 1.0 | 2.0 | 0.00 | 0.00 | 0.00 | 59 | 1010.1 |
| 20260503190915 | 65 | 175 | 1.0 | 2.0 | 0.00 | 0.00 | 0.00 | 59 | 1010.1 |
| 20260503190615 | 65 | 175 | 1.0 | 2.0 | 0.00 | 0.00 | 0.00 | 58 | 1010.0 |
| 20260503190315 | 66 | 175 | 0.0 | 1.0 | 0.00 | 0.00 | 0.00 | 57 | 1010.0 |
| 20260503190055 | 66 | 175 | 0.0 | 1.0 | 0.00 | 0.00 | 0.00 | 56 | 1010.0 |
| 20260503185715 | 66 | 0.0 | 0.0 | 0.00 | 0.00 | 0.00 | 56 | 1010.1 | |
| 20260503185538 | 66 | 0.0 | 0.0 | 0.00 | 0.00 | 0.00 | 56 | 1010.0 | |
| 20260503185115 | 67 | 0.0 | 0.0 | 0.00 | 0.00 | 0.00 | 55 | 1010.0 | |
| 20260503184815 | 67 | 0.0 | 0.0 | 0.00 | 0.00 | 0.00 | 56 | 1010.0 | |
| 20260503184515 | 68 | 0.0 | 0.0 | 0.00 | 0.00 | 0.00 | 54 | 1010.0 | |
| 20260503184215 | 68 | 175 | 0.0 | 1.0 | 0.00 | 0.00 | 0.00 | 53 | 1010.0 |
| 20260503183915 | 69 | 175 | 0.0 | 1.0 | 0.00 | 0.00 | 0.00 | 51 | 1009.9 |
| 20260503183615 | 70 | 175 | 1.0 | 2.0 | 0.00 | 0.00 | 0.00 | 49 | 1009.9 |
| 20260503183315 | 71 | 175 | 1.0 | 2.0 | 0.00 | 0.00 | 0.00 | 49 | 1009.9 |
| 20260503183015 | 71 | 175 | 1.0 | 2.0 | 0.00 | 0.00 | 0.00 | 47 | 1009.9 |
| 20260503182716 | 71 | 175 | 1.0 | 2.0 | 0.00 | 0.00 | 0.00 | 45 | 1009.8 |
| 20260503182455 | 72 | 177 | 1.0 | 3.0 | 0.00 | 0.00 | 0.00 | 46 | 1009.8 |
| 20260503182115 | 72 | 175 | 2.0 | 3.0 | 0.00 | 0.00 | 0.00 | 45 | 1009.8 |
| 20260503181815 | 72 | 144 | 1.0 | 2.0 | 0.00 | 0.00 | 0.00 | 44 | 1009.7 |
| 20260503181515 | 73 | 144 | 2.0 | 3.0 | 0.00 | 0.00 | 0.00 | 43 | 1009.8 |
| 20260503181215 | 73 | 144 | 3.0 | 4.0 | 0.00 | 0.01 | 0.00 | 43 | 1009.7 |
| 20260503180915 | 72 | 182 | 2.0 | 5.0 | 0.00 | 0.01 | 0.00 | 45 | 1009.7 |
| 20260503180655 | 73 | 225 | 1.0 | 2.0 | 0.00 | 0.01 | 0.00 | 44 | 1009.7 |
| 20260503180315 | 73 | 226 | 1.0 | 2.0 | 0.00 | 0.01 | 0.00 | 42 | 1009.7 |
| 20260503180015 | 73 | 227 | 1.0 | 2.0 | 0.00 | 0.01 | 0.00 | 45 | 1009.6 |
| 20260503175715 | 74 | 227 | 0.0 | 2.0 | 0.00 | 0.01 | 0.00 | 46 | 1009.6 |
| 20260503175415 | 74 | 0.0 | 0.0 | 0.00 | 0.01 | 0.00 | 45 | 1009.6 | |
| 20260503175115 | 75 | 227 | 0.0 | 1.0 | 0.00 | 0.01 | 0.00 | 45 | 1009.6 |
| 20260503174815 | 75 | 227 | 0.0 | 1.0 | 0.00 | 0.01 | 0.00 | 43 | 1009.6 |
| 20260503174515 | 76 | 227 | 1.0 | 2.0 | 0.00 | 0.01 | 0.00 | 41 | 1009.6 |
| 20260503174215 | 77 | 227 | 2.0 | 2.0 | 0.00 | 0.01 | 0.00 | 37 | 1009.6 |
| 20260503173915 | 78 | 227 | 2.0 | 2.0 | 0.00 | 0.01 | 0.00 | 35 | 1009.6 |
| 20260503173615 | 78 | 227 | 2.0 | 3.0 | 0.00 | 0.01 | 0.00 | 34 | 1009.6 |
| 20260503173315 | 78 | 227 | 1.0 | 2.0 | 0.00 | 0.01 | 0.00 | 34 | 1009.6 |
| 20260503173015 | 78 | 227 | 1.0 | 2.0 | 0.00 | 0.01 | 0.00 | 35 | 1009.6 |
| 20260503172715 | 78 | 227 | 1.0 | 2.0 | 0.00 | 0.01 | 0.00 | 36 | 1009.6 |
| 20260503172416 | 79 | 238 | 2.0 | 3.0 | 0.00 | 0.01 | 0.00 | 33 | 1009.6 |
| 20260503172118 | 79 | 249 | 2.0 | 4.0 | 0.00 | 0.01 | 0.00 | 32 | 1009.6 |
| 20260503171815 | 79 | 251 | 1.0 | 3.0 | 0.00 | 0.01 | 0.00 | 34 | 1009.6 |
| 20260503171515 | 79 | 248 | 1.0 | 3.0 | 0.00 | 0.01 | 0.00 | 32 | 1009.6 |
| 20260503171215 | 79 | 265 | 2.0 | 3.0 | 0.00 | 0.01 | 0.00 | 32 | 1009.6 |
| 20260503170918 | 79 | 262 | 3.0 | 4.0 | 0.00 | 0.01 | 0.00 | 32 | 1009.6 |
| 20260503170615 | 79 | 269 | 4.0 | 7.0 | 0.00 | 0.01 | 0.00 | 32 | 1009.6 |
| 20260503170315 | 79 | 267 | 3.0 | 5.0 | 0.00 | 0.01 | 0.00 | 32 | 1009.6 |
| 20260503170139 | 80 | 265 | 5.0 | 10.0 | 0.00 | 0.01 | 0.00 | 32 | 1009.6 |
| 20260503150916 | 83 | 239 | 6.0 | 12.0 | 0.00 | 0.01 | 0.00 | 26 | 1010.3 |
| 20260503150616 | 83 | 198 | 3.0 | 8.0 | 0.00 | 0.01 | 0.00 | 28 | 1010.3 |
| 20260503150316 | 83 | 230 | 4.0 | 9.0 | 0.00 | 0.01 | 0.00 | 27 | 1010.3 |
| 20260503131256 | 84 | 217 | 7.0 | 14.0 | 0.00 | 0.01 | 0.00 | 26 | 1011.4 |
| 20260503130955 | 84 | 196 | 7.0 | 14.0 | 0.00 | 0.01 | 0.00 | 26 | 1011.3 |
| 20260503130615 | 84 | 174 | 7.0 | 12.0 | 0.00 | 0.01 | 0.00 | 26 | 1011.4 |
| 20260503130358 | 84 | 207 | 3.0 | 5.0 | 0.00 | 0.01 | 0.00 | 27 | 1011.4 |
| 20260503110615 | 83 | 222 | 4.0 | 9.0 | 0.00 | 0.01 | 0.00 | 28 | 1012.6 |
| 20260503110315 | 83 | 186 | 5.0 | 11.0 | 0.00 | 0.01 | 0.00 | 30 | 1012.5 |
| 20260503090316 | 76 | 221 | 5.0 | 9.0 | 0.00 | 0.01 | 0.00 | 37 | 1013.4 |
| 20260503081516 | 73 | 171 | 4.0 | 8.0 | 0.00 | 0.01 | 0.00 | 39 | 1013.6 |
| 20260503081256 | 73 | 208 | 3.0 | 7.0 | 0.00 | 0.01 | 0.00 | 40 | 1013.6 |
| 20260503080915 | 73 | 195 | 3.0 | 8.0 | 0.00 | 0.01 | 0.00 | 39 | 1013.7 |
| 20260503080615 | 73 | 208 | 3.0 | 6.0 | 0.00 | 0.01 | 0.00 | 39 | 1013.7 |
| 20260503080316 | 73 | 243 | 4.0 | 8.0 | 0.00 | 0.01 | 0.00 | 40 | 1013.7 |
| 20260503072718 | 69 | 217 | 4.0 | 8.0 | 0.00 | 0.01 | 0.00 | 44 | 1013.7 |
| 20260503072416 | 69 | 204 | 3.0 | 6.0 | 0.00 | 0.01 | 0.00 | 45 | 1013.7 |
| 20260503072115 | 69 | 217 | 5.0 | 9.0 | 0.00 | 0.01 | 0.00 | 44 | 1013.7 |
| 20260503071816 | 68 | 204 | 4.0 | 8.0 | 0.00 | 0.01 | 0.00 | 44 | 1013.6 |
| 20260503071518 | 68 | 182 | 4.0 | 9.0 | 0.00 | 0.01 | 0.00 | 45 | 1013.7 |
| 20260503071216 | 68 | 213 | 4.0 | 8.0 | 0.00 | 0.01 | 0.00 | 45 | 1013.6 |
| 20260503070916 | 67 | 174 | 3.0 | 5.0 | 0.00 | 0.01 | 0.00 | 47 | 1013.7 |
| 20260503070615 | 67 | 175 | 3.0 | 7.0 | 0.00 | 0.01 | 0.00 | 47 | 1013.6 |
| 20260503070359 | 67 | 176 | 3.0 | 5.0 | 0.00 | 0.01 | 0.00 | 48 | 1013.6 |
| 20260503060315 | 59 | 177 | 2.0 | 4.0 | 0.00 | 0.01 | 0.00 | 58 | 1013.8 |
| 20260503054816 | 56 | 147 | 1.0 | 2.0 | 0.00 | 0.01 | 0.00 | 64 | 1013.7 |
| 20260503054516 | 56 | 130 | 2.0 | 4.0 | 0.00 | 0.01 | 0.00 | 64 | 1013.7 |
| 20260503054216 | 55 | 89 | 1.0 | 3.0 | 0.00 | 0.01 | 0.00 | 65 | 1013.7 |
| 20260503053956 | 55 | 89 | 1.0 | 2.0 | 0.00 | 0.01 | 0.00 | 66 | 1013.7 |
| 20260503053615 | 54 | 90 | 1.0 | 2.0 | 0.00 | 0.01 | 0.00 | 67 | 1013.7 |
| 20260503053325 | 54 | 90 | 1.0 | 3.0 | 0.00 | 0.01 | 0.00 | 67 | 1013.7 |
| 20260503053016 | 54 | 152 | 2.0 | 3.0 | 0.00 | 0.01 | 0.00 | 67 | 1013.7 |
| 20260503052716 | 53 | 163 | 1.0 | 3.0 | 0.00 | 0.01 | 0.00 | 67 | 1013.7 |
| 20260503052455 | 52 | 166 | 1.0 | 3.0 | 0.00 | 0.01 | 0.00 | 68 | 1013.7 |
| 20260503052159 | 52 | 166 | 1.0 | 2.0 | 0.00 | 0.01 | 0.00 | 69 | 1013.7 |
| 20260503051856 | 51 | 166 | 1.0 | 3.0 | 0.00 | 0.01 | 0.00 | 71 | 1013.7 |
| 20260503051515 | 51 | 166 | 1.0 | 2.0 | 0.00 | 0.01 | 0.00 | 72 | 1013.8 |
| 20260503051255 | 51 | 166 | 1.0 | 2.0 | 0.00 | 0.01 | 0.00 | 72 | 1013.8 |
| 20260503050916 | 50 | 170 | 1.0 | 2.0 | 0.00 | 0.01 | 0.00 | 73 | 1013.8 |
| 20260503050616 | 50 | 181 | 1.0 | 3.0 | 0.00 | 0.01 | 0.00 | 74 | 1013.8 |
| 20260503050316 | 49 | 182 | 2.0 | 4.0 | 0.00 | 0.01 | 0.00 | 75 | 1013.8 |
| 20260503050055 | 49 | 203 | 1.0 | 2.0 | 0.00 | 0.01 | 0.00 | 75 | 1013.8 |
| 20260503045812 | 49 | 207 | 0.0 | 1.0 | 0.00 | 0.01 | 0.00 | 75 | 1013.8 |
| 20260503045458 | 48 | 0.0 | 0.0 | 0.00 | 0.01 | 0.00 | 76 | 1013.8 | |
| 20260503045116 | 48 | 207 | 0.0 | 2.0 | 0.00 | 0.01 | 0.00 | 76 | 1013.8 |
| 20260503044816 | 48 | 207 | 0.0 | 1.0 | 0.00 | 0.01 | 0.00 | 76 | 1013.8 |
| 20260503044516 | 48 | 0.0 | 0.0 | 0.00 | 0.01 | 0.00 | 76 | 1013.8 | |
| 20260503044216 | 48 | 0.0 | 0.0 | 0.00 | 0.01 | 0.00 | 76 | 1013.8 | |
| 20260503043916 | 48 | 0.0 | 0.0 | 0.00 | 0.01 | 0.00 | 75 | 1013.8 | |
| 20260503043616 | 48 | 207 | 1.0 | 2.0 | 0.00 | 0.01 | 0.00 | 74 | 1013.8 |
| 20260503043355 | 48 | 207 | 1.0 | 2.0 | 0.00 | 0.01 | 0.00 | 75 | 1013.8 |
| 20260503043019 | 48 | 207 | 0.0 | 2.0 | 0.00 | 0.01 | 0.00 | 75 | 1013.7 |
| 20260503042716 | 47 | 207 | 0.0 | 1.0 | 0.00 | 0.01 | 0.00 | 75 | 1013.8 |
| 20260503042416 | 47 | 0.0 | 0.0 | 0.00 | 0.01 | 0.00 | 76 | 1013.7 | |
| 20260503042116 | 47 | 0.0 | 0.0 | 0.00 | 0.01 | 0.00 | 77 | 1013.6 | |
| 20260503041819 | 47 | 0.0 | 0.0 | 0.00 | 0.01 | 0.00 | 76 | 1013.7 | |
| 20260503041516 | 47 | 0.0 | 0.0 | 0.00 | 0.01 | 0.00 | 76 | 1013.7 | |
| 20260503041215 | 47 | 206 | 0.0 | 1.0 | 0.00 | 0.01 | 0.00 | 76 | 1013.7 |
| 20260503040916 | 47 | 0.0 | 0.0 | 0.00 | 0.01 | 0.00 | 76 | 1013.7 | |
| 20260503040616 | 47 | 0.0 | 0.0 | 0.00 | 0.01 | 0.00 | 76 | 1013.7 | |
| 20260503040316 | 47 | 0.0 | 0.0 | 0.00 | 0.01 | 0.00 | 76 | 1013.7 | |
| 20260503040016 | 47 | 0.0 | 0.0 | 0.00 | 0.01 | 0.00 | 76 | 1013.7 | |
| 20260503035716 | 47 | 0.0 | 0.0 | 0.00 | 0.01 | 0.00 | 76 | 1013.7 | |
| 20260503035416 | 47 | 94 | 0.0 | 1.0 | 0.00 | 0.01 | 0.00 | 75 | 1013.7 |
| 20260503035115 | 47 | 94 | 0.0 | 1.0 | 0.00 | 0.01 | 0.00 | 76 | 1013.7 |
| 20260503034816 | 46 | 94 | 1.0 | 2.0 | 0.00 | 0.01 | 0.00 | 76 | 1013.8 |
| 20260503034516 | 46 | 94 | 0.0 | 2.0 | 0.00 | 0.01 | 0.00 | 75 | 1013.8 |
| 20260503034216 | 46 | 0.0 | 0.0 | 0.00 | 0.01 | 0.00 | 75 | 1013.8 | |
| 20260503033956 | 46 | 0.0 | 0.0 | 0.00 | 0.01 | 0.00 | 75 | 1013.8 | |
| 20260503033616 | 46 | 0.0 | 0.0 | 0.00 | 0.01 | 0.00 | 76 | 1013.8 | |
| 20260503033316 | 46 | 0.0 | 0.0 | 0.00 | 0.01 | 0.00 | 75 | 1013.8 | |
| 20260503033015 | 46 | 0.0 | 0.0 | 0.00 | 0.01 | 0.00 | 75 | 1013.8 | |
| 20260503032716 | 47 | 0.0 | 0.0 | 0.00 | 0.01 | 0.00 | 75 | 1013.8 | |
| 20260503032416 | 47 | 0.0 | 0.0 | 0.00 | 0.01 | 0.00 | 74 | 1013.8 | |
| 20260503032116 | 47 | 0.0 | 0.0 | 0.00 | 0.01 | 0.00 | 74 | 1013.8 | |
| 20260503031856 | 47 | 94 | 0.0 | 2.0 | 0.00 | 0.01 | 0.00 | 74 | 1013.8 |
| 20260503031515 | 47 | 0.0 | 0.0 | 0.00 | 0.01 | 0.00 | 74 | 1013.7 | |
| 20260503031336 | 47 | 94 | 0.0 | 1.0 | 0.00 | 0.01 | 0.00 | 74 | 1013.8 |
| 20260503030915 | 47 | 0.0 | 0.0 | 0.00 | 0.01 | 0.00 | 75 | 1013.8 | |
| 20260503030656 | 47 | 0.0 | 0.0 | 0.00 | 0.01 | 0.00 | 75 | 1013.7 | |
| 20260503030315 | 47 | 0.0 | 0.0 | 0.00 | 0.01 | 0.00 | 75 | 1013.8 | |
| 20260503030016 | 47 | 0.0 | 0.0 | 0.00 | 0.01 | 0.00 | 75 | 1013.8 | |
| 20260503025716 | 47 | 0.0 | 0.0 | 0.00 | 0.01 | 0.00 | 74 | 1013.8 | |
| 20260503025536 | 47 | 0.0 | 0.0 | 0.00 | 0.01 | 0.00 | 74 | 1013.8 | |
| 20260503025116 | 47 | 0.0 | 0.0 | 0.00 | 0.01 | 0.00 | 75 | 1013.9 | |
| 20260503024815 | 47 | 0.0 | 0.0 | 0.00 | 0.01 | 0.00 | 75 | 1013.9 | |
| 20260503024516 | 47 | 0.0 | 0.0 | 0.00 | 0.01 | 0.00 | 74 | 1013.9 | |
| 20260503024216 | 47 | 0.0 | 0.0 | 0.00 | 0.01 | 0.00 | 75 | 1014.0 | |
| 20260503023916 | 47 | 0.0 | 0.0 | 0.00 | 0.01 | 0.00 | 75 | 1013.9 | |
| 20260503023616 | 47 | 94 | 0.0 | 2.0 | 0.00 | 0.01 | 0.00 | 75 | 1014.0 |
| 20260503023316 | 47 | 0.0 | 0.0 | 0.00 | 0.01 | 0.00 | 74 | 1014.0 | |
| 20260503023016 | 47 | 94 | 0.0 | 1.0 | 0.00 | 0.01 | 0.00 | 74 | 1014.0 |
| 20260503022718 | 47 | 94 | 0.0 | 1.0 | 0.00 | 0.01 | 0.00 | 74 | 1014.1 |
| 20260503022416 | 47 | 94 | 0.0 | 1.0 | 0.00 | 0.01 | 0.00 | 74 | 1014.0 |
| 20260503022116 | 47 | 0.0 | 0.0 | 0.00 | 0.01 | 0.00 | 74 | 1014.1 | |
| 20260503021856 | 47 | 0.0 | 0.0 | 0.00 | 0.01 | 0.00 | 74 | 1014.1 | |
| 20260503021516 | 47 | 94 | 0.0 | 1.0 | 0.00 | 0.01 | 0.00 | 74 | 1014.1 |
| 20260503021216 | 47 | 94 | 0.0 | 1.0 | 0.00 | 0.01 | 0.00 | 74 | 1014.1 |
| 20260503020916 | 47 | 94 | 0.0 | 1.0 | 0.00 | 0.01 | 0.00 | 74 | 1014.2 |
| 20260503020615 | 47 | 94 | 0.0 | 1.0 | 0.00 | 0.01 | 0.00 | 73 | 1014.2 |
| 20260503020316 | 48 | 94 | 0.0 | 1.0 | 0.00 | 0.01 | 0.00 | 73 | 1014.2 |
| 20260503020016 | 48 | 94 | 0.0 | 2.0 | 0.00 | 0.01 | 0.00 | 73 | 1014.3 |
| 20260503015716 | 48 | 0.0 | 0.0 | 0.00 | 0.01 | 0.00 | 73 | 1014.3 | |
| 20260503015416 | 47 | 0.0 | 0.0 | 0.00 | 0.01 | 0.00 | 73 | 1014.3 | |
| 20260503015116 | 47 | 94 | 0.0 | 1.0 | 0.00 | 0.01 | 0.00 | 73 | 1014.3 |
| 20260503014816 | 47 | 0.0 | 0.0 | 0.00 | 0.01 | 0.00 | 73 | 1014.4 | |
| 20260503014515 | 47 | 0.0 | 0.0 | 0.00 | 0.01 | 0.00 | 74 | 1014.3 | |
| 20260503014256 | 48 | 0.0 | 0.0 | 0.00 | 0.01 | 0.00 | 74 | 1014.3 | |
| 20260503013919 | 47 | 0.0 | 0.0 | 0.00 | 0.01 | 0.00 | 74 | 1014.3 | |
| 20260503013616 | 47 | 0.0 | 0.0 | 0.00 | 0.01 | 0.00 | 73 | 1014.3 | |
| 20260503013315 | 48 | 94 | 0.0 | 1.0 | 0.00 | 0.01 | 0.00 | 74 | 1014.3 |
| 20260503013015 | 48 | 0.0 | 0.0 | 0.00 | 0.01 | 0.00 | 74 | 1014.4 | |
| 20260503012716 | 48 | 94 | 1.0 | 3.0 | 0.00 | 0.01 | 0.00 | 74 | 1014.4 |
| 20260503012415 | 48 | 94 | 1.0 | 2.0 | 0.00 | 0.01 | 0.00 | 74 | 1014.4 |